Hourly Data Report for February 05, 2019

MIRAMICHI RCS
NEW BRUNSWICK
Current Station Operator: ECCC - MSC

47°00'34.000" N
65°27'54.000" W
33.00 m
8100989
71744
ACQ

Download Data

Hourly Data (February 2019)
Hourly Data Report for February 5, 2019
TIME
LST
Temp Definition
°C
Dew Point Definition
°C
Rel Hum Definition
%
Precip. Amount Definition
mm

Wind Dir Definition
10's deg

Wind Spd Definition
km/h
Visibility Definition
km
Stn Press Definition
kPa
Hmdx Definition


Wind Chill Definition


Weather Definition


00:00 -8.2 -9.5 90 0.0 14 7   101.33   -12 LegendNANA
01:00 -6.4 -8.0 88 0.0 10 6   101.34   -9 LegendNANA
02:00 -5.7 -7.9 85 0.0 11 8   101.32   -9 LegendNANA
03:00 -5.3 -7.6 84 0.0 9 10   101.19   -10 LegendNANA
04:00 -5.3 -7.6 84 0.0 11 5   101.16   -8 LegendNANA
05:00 -5.3 -7.6 84 0.0 6 8   101.05   -9 LegendNANA
06:00 -5.4 -7.4 86 0.0 7 7   100.94   -9 LegendNANA
07:00 -5.3 -7.3 86 0.0 6 9   100.79   -9 LegendNANA
08:00 -4.9 -6.8 87 0.0 7 5   100.75   -7 LegendNANA
09:00 -4.7 -6.5 87 0.0 5 5   100.61   -7 LegendNANA
10:00 -3.6 -5.5 87 0.0 0 1   100.53   -4 LegendNANA
11:00 -2.9 -4.8 87 0.0 32 3   100.40   -4 LegendNANA
12:00 -3.1 -4.4 91 0.0 23 5   100.34   -5 LegendNANA
13:00 -2.6 -3.6 93 0.0 24 11   100.23   -7 LegendNANA
14:00 -1.6 -3.2 89 0.0 26 9   100.16   -5 LegendNANA
15:00 0.1 -2.2 84 0.0 26 8   100.09     LegendNANA
16:00 1.0 -1.4 84 0.0 25 6   100.09     LegendNANA
17:00 2.0 -0.7 83 0.0 25 5   100.07     LegendNANA
18:00 -1.2 -2.2 93 0.0 25 4   100.12   -3 LegendNANA
19:00 -2.1 -2.8 95 0.0 25 5   100.17   -4 LegendNANA
20:00 3.1 1.9 92 0.0 23 15   100.20     LegendNANA
21:00 2.8 0.8 87 0.0 30 14   100.41     LegendNANA
22:00 1.3 -1.5 82 0.0 32 10   100.55     LegendNANA
23:00 0.2 -3.7 75 0.0 32 13   100.77     LegendNANA

Notes on Data Quality.

Legend

  • E = Estimated
  • M = Missing
  • NA = Not Available*
  • [empty] = Indicates an unobserved value
Date modified: